Temperature
20 20 19 19 19 18 18 18 18 18 19 18 18 18 18 18 18 18 18 18 17 17 17 17 17 16 16 16 16 16 16 16 16 16 17 17 17 17 17 17 17 17 16
19 19 19 19 19 18 18 18 18 18 18 18 18 18 18 18 18 18 17 17 17 17 17 16 16 16 16 16 16 16 16 16 16 16 17 17 17 17 16 16 16 16 16
19 19 19 18 18 18 18 18 18 18 18 18 18 18 18 18 17 17 17 17 17 17 17 16 16 16 16 16 16 16 16 16 16 16 16 16 16 16 16 16 16 16 16
19 19 19 18 18 18 18 18 18 18 18 18 18 18 18 18 18 18 17 17 17 17 16 16 16 16 16 16 16 15 15 16 16 16 16 16 16 16 16 16 16 16 16
19 19 19 19 18 18 18 18 18 18 18 18 18 18 18 18 18 17 17 17 17 16 16 16 16 16 16 15 15 15 15 15 15 15 15 16 16 16 16 16 16 16 16
19 19 19 18 18 18 18 18 18 18 18 18 18 18 18 18 17 17 17 17 16 16 16 16 16 16 15 15 15 15 15 15 15 15 15 15 15 15 15 15 15 15 15
19 19 19 18 18 18 18 18 18 18 18 18 18 18 18 18 17 17 17 17 16 16 16 16 16 16 15 15 15 15 15 15 15 15 15 15 15 15 15 15 15 15 15
19 19 19 19 18 18 18 18 18 18 18 18 18 18 18 17 17 17 17 17 17 17 16 16 16 16 15 15 15 15 15 15 15 15 15 15 15 14 14 14 14 14 15
20 19 19 19 19 19 18 18 18 18 18 18 18 18 17 17 17 17 17 17 17 17 16 16 16 16 15 15 15 15 15 15 15 15 14 14 14 14 14 14 14 14 14
20 20 19 19 19 19 19 18 18 18 18 18 18 18 17 17 17 17 17 17 17 17 16 16 16 16 15 15 15 15 15 15 15 15 15 15 14 14 14 14 14 14 14
20 20 20 20 19 19 19 19 18 18 18 18 18 18 17 17 17 17 17 17 17 17 16 16 16 16 16 15 15 15 15 15 15 15 15 15 14 14 14 14 14 14 13
21 21 21 20 20 19 19 19 19 19 18 18 18 18 18 17 17 17 17 17 17 17 17 16 16 16 16 16 16 15 15 15 15 15 15 15 14 14 14 14 14 14 13
21 21 21 20 20 20 19 19 19 19 19 18 18 18 18 18 18 17 17 17 17 17 16 16 16 16 16 16 16 16 15 15 15 15 15 15 14 14 14 14 14 14 13
21 21 21 20 20 20 20 20 19 19 19 19 18 18 18 18 18 17 17 17 17 17 16 16 16 16 16 16 16 16 15 15 15 15 15 15 14 14 14 14 14 14 13
20 20 20 20 20 20 20 20 20 20 19 19 19 18 18 18 18 17 17 17 17 17 16 16 16 16 16 16 16 16 16 15 15 15 15 15 15 14 14 14 14 14 13
20 20 20 20 20 20 20 20 20 20 19 19 19 19 18 18 18 17 17 17 17 16 16 16 16 16 16 16 15 15 15 15 15 15 15 15 14 14 14 14 14 13 13
21 20 20 20 20 20 20 20 20 20 19 19 19 19 19 18 18 17 17 17 17 16 16 16 16 16 16 15 15 15 15 15 15 15 15 15 14 14 14 14 13 13 13
20 20 20 20 20 20 20 20 20 19 19 19 19 19 18 18 18 17 17 17 17 16 16 16 16 16 16 15 15 15 15 14 14 14 14 14 14 14 14 13 13 13 13
20 20 20 20 20 20 20 20 19 19 19 19 18 18 18 18 17 17 16 16 16 16 16 16 16 15 15 15 15 14 14 14 14 14 14 14 14 14 13 13 13 13 13
19 19 19 19 19 19 19 19 19 18 18 18 18 18 17 17 17 17 16 16 16 15 15 15 15 15 15 15 14 14 14 14 14 14 14 13 13 13 13 13 13 13 13
18 18 18 18 18 18 18 18 18 17 17 17 17 17 17 16 16 16 16 15 15 15 15 15 14 14 14 14 14 13 13 13 13 13 13 13 13 13 12 12 12 12 12
17 17 17 17 17 17 17 17 16 16 16 16 16 16 16 16 15 15 15 15 15 14 14 14 14 14 14 13 13 13 13 13 13 13 13 12 12 12 12 12 12 12 11
16 16 16 16 16 16 16 16 15 15 15 15 15 15 15 14 14 14 14 14 14 14 13 13 13 13 13 13 12 12 12 12 12 12 12 12 12 11 11 11 11 11 11
15 15 16 15 15 15 15 15 14 15 15 14 14 14 14 14 13 13 13 13 13 13 13 13 13 12 12 12 12 12 12 12 11 11 11 11 11 11 11 11 11 11 10
15 15 15 14 14 14 14 14 14 14 14 13 13 13 13 13 13 13 13 12 13 13 12 12 12 12 12 12 11 11 11 11 11 11 11 11 11 11 10 10 10 10 10
14 14 14 14 14 14 14 13 13 13 13 13 13 13 13 13 12 12 12 12 12 12 12 12 12 12 11 11 11 11 11 11 10 10 10 10 10 10 9 9 9 9 9
Wind_Speed
7 7 9 11 12 11 11 11 11 10 9 8 7 7 6 5 5 5 9 10 10 10 8 5 5 4 4 4 3 2 2 2 1 2 3 4 2 1 1 1 1 2 4
7 7 8 9 10 12 12 12 12 10 9 8 6 5 6 5 5 4 6 9 10 10 8 6 5 4 4 4 3 3 2 2 2 2 3 3 5 4 2 1 0 1 1
11 10 9 10 11 11 12 13 12 11 9 9 7 6 5 4 3 4 4 5 9 9 9 8 6 4 4 4 3 3 4 2 2 2 3 3 1 2 4 3 2 1 0
9 9 10 11 12 13 12 11 11 10 9 9 9 10 7 6 6 5 5 4 7 9 10 9 7 5 4 4 3 3 3 3 2 2 2 2 3 3 1 4 3 3 1
10 11 11 12 12 12 13 12 12 11 10 9 10 10 7 5 5 5 6 5 4 7 9 9 7 5 4 4 4 4 3 3 3 1 1 3 3 3 3 1 4 4 3
10 10 10 10 9 10 11 12 11 10 10 10 10 10 10 8 8 7 7 5 4 4 6 8 7 6 5 5 4 4 4 3 3 2 2 2 2 1 2 2 1 3 4
11 11 11 11 11 12 12 12 12 11 10 10 10 10 10 10 11 9 8 7 5 4 5 5 6 5 5 5 4 4 3 3 3 3 2 2 2 2 3 3 1 1 3
12 12 13 13 13 14 13 12 12 11 10 10 10 9 9 8 8 9 8 8 6 6 7 7 6 6 7 6 4 3 3 3 3 3 2 2 1 2 3 3 3 1 3
14 14 13 13 13 13 13 13 13 10 10 10 9 8 9 8 9 8 8 6 6 6 8 7 7 6 6 6 5 3 3 4 3 3 3 2 1 1 1 2 3 4 1
13 14 14 13 12 12 12 12 12 11 10 10 9 9 8 9 9 8 8 8 8 7 9 8 8 7 6 6 5 4 4 4 3 3 3 2 2 1 1 2 2 3 4
15 14 14 13 13 12 13 12 12 11 11 11 9 8 8 8 8 8 8 8 8 9 9 9 9 8 7 7 6 5 5 5 4 3 4 4 3 2 2 1 1 2 3
14 14 14 13 12 13 13 14 13 13 12 11 10 9 9 8 8 8 9 9 9 9 10 9 9 9 8 7 8 7 6 6 6 6 5 5 4 4 3 3 3 3 3
13 12 13 13 13 14 14 14 14 14 12 11 11 10 9 9 9 9 9 9 9 9 9 9 10 9 9 9 8 8 7 7 7 7 7 7 6 6 5 5 4 4 4
12 13 12 12 12 13 14 14 14 13 13 12 11 11 11 10 10 9 9 9 9 9 10 10 10 9 9 9 9 9 8 8 7 7 8 8 8 8 7 6 6 5 5
10 11 12 11 11 11 11 12 13 12 12 12 12 12 10 9 9 9 9 9 9 10 9 9 8 8 7 8 9 9 9 8 8 7 7 8 10 11 9 7 7 7 6
11 11 10 10 10 11 11 12 12 12 12 13 13 12 11 10 10 9 9 9 9 8 8 9 9 9 8 10 12 9 8 7 8 8 7 8 9 11 13 13 12 10 8
9 9 9 10 10 10 11 12 13 11 12 13 12 12 12 11 10 10 9 9 9 9 9 9 9 9 9 11 12 12 7 7 7 8 7 6 7 8 7 9 11 12 14
7 7 6 5 5 6 7 8 9 10 11 10 10 10 10 9 8 7 8 8 7 7 7 8 8 8 9 12 12 11 7 6 6 6 6 7 7 6 6 7 7 8 9
5 5 5 5 4 4 5 6 7 8 8 8 8 8 8 8 7 7 7 7 6 7 7 7 7 7 8 10 12 10 5 5 6 6 6 7 7 9 9 6 7 9 9
7 6 6 6 6 3 5 7 6 6 5 5 5 5 6 7 7 8 7 5 5 6 6 6 6 7 7 8 10 10 5 5 5 5 5 8 8 9 7 6 7 9 10
9 8 9 8 6 6 9 9 8 6 4 4 5 4 4 5 6 5 4 4 5 4 4 4 3 4 4 5 7 8 5 5 5 5 5 5 7 8 8 8 8 12 11
10 10 10 9 8 8 10 10 7 4 5 6 5 4 3 2 3 3 3 4 5 4 3 3 2 1 2 3 4 7 8 6 5 5 4 5 8 9 11 9 11 15 12
9 9 11 11 9 8 9 9 5 5 6 6 5 4 4 3 2 4 4 3 3 3 3 3 2 1 1 1 2 4 6 7 5 5 7 8 10 10 9 12 14 11 7
10 9 11 11 9 8 8 7 6 6 7 6 4 4 4 4 3 3 3 3 3 3 3 3 2 2 2 2 1 2 2 4 5 5 6 9 9 8 9 9 8 6 6
9 9 9 10 8 8 8 7 6 7 7 5 4 3 2 2 3 2 2 3 3 4 5 4 4 4 3 4 5 3 2 2 3 2 2 3 4 4 5 5 6 6 6
8 9 9 8 7 7 7 6 6 7 6 5 3 2 2 1 1 1 1 2 1 3 4 5 4 4 5 5 5 5 5 4 3 2 3 4 5 5 6 6 7 6 6
Wind_Direction
177 163 164 164 160 158 158 156 159 161 152 146 145 144 148 152 150 154 151 144 141 141 136 133 130 125 124 129 119 101 71 29 28 46 6 352 357 28 228 207 181 199 204
162 167 171 169 165 165 159 156 161 166 160 154 153 151 146 151 153 149 149 149 147 147 143 137 140 137 125 112 98 92 89 23 48 103 76 20 3 355 357 359 162 199 166
171 174 175 173 169 171 170 167 168 168 162 153 143 131 113 107 124 145 156 161 152 147 143 147 143 140 135 136 126 115 116 86 20 74 129 125 195 317 338 354 3 347 52
174 177 180 178 179 180 174 164 165 167 163 156 152 152 154 160 175 168 168 164 154 152 151 151 144 140 136 141 142 125 122 114 69 20 42 131 154 135 352 336 341 340 353
181 183 184 182 182 178 173 167 167 168 167 163 161 159 158 166 158 153 158 161 156 158 155 151 144 142 142 145 136 124 117 119 123 107 70 61 60 84 123 324 329 339 329
183 184 181 173 174 172 170 165 168 171 171 166 165 165 166 166 160 164 168 168 162 157 155 151 148 148 147 150 151 146 135 132 125 120 115 122 112 116 123 151 293 310 307
181 179 175 174 174 175 174 171 172 178 178 172 174 173 172 170 173 172 174 171 167 170 173 156 156 155 157 158 150 145 147 147 142 147 142 140 153 161 146 137 179 322 313
183 181 180 177 176 177 177 176 177 178 180 178 179 177 171 172 177 176 174 179 179 179 173 166 166 165 160 159 150 149 163 155 155 159 152 146 161 157 156 155 142 47 341
182 181 181 180 179 179 180 178 176 175 182 180 174 173 172 170 173 174 172 175 179 179 171 168 169 169 164 159 152 162 174 161 167 168 164 165 189 151 153 150 151 147 168
180 180 181 182 183 182 178 175 174 179 182 178 177 178 174 173 172 169 175 177 178 174 169 171 171 170 168 165 159 166 176 169 181 183 177 191 203 176 153 148 151 154 165
183 182 182 182 180 178 177 177 178 176 177 178 179 175 176 175 169 173 179 180 178 174 173 174 173 174 177 175 172 181 182 186 197 197 191 211 202 195 206 182 167 172 165
184 183 181 178 177 178 179 181 182 183 184 181 179 181 180 179 179 181 183 180 177 178 177 175 176 182 185 183 182 191 189 191 201 209 204 220 215 212 217 210 219 218 199
181 179 179 181 182 182 183 186 186 188 187 181 181 182 184 186 188 187 184 179 177 178 180 178 183 188 188 190 194 194 197 201 207 208 207 216 207 219 222 219 224 231 224
180 179 180 182 185 186 186 187 190 190 186 184 184 186 190 194 194 189 185 184 181 181 186 189 192 193 193 195 199 199 203 209 214 215 215 217 210 215 218 222 224 226 231
172 175 177 179 182 186 189 190 191 189 186 184 189 195 193 194 194 191 189 188 189 193 194 194 199 198 197 203 202 203 207 211 219 225 224 224 221 219 217 220 220 218 225
176 177 176 173 177 183 188 190 191 188 182 186 194 193 188 194 196 196 192 191 193 194 192 194 197 201 209 209 207 207 213 213 219 229 235 239 237 235 232 233 227 215 218
167 168 175 179 186 190 190 191 192 187 184 191 194 191 191 194 198 198 192 193 196 195 196 198 197 204 211 208 208 212 209 217 223 226 232 245 246 240 241 247 247 239 234
141 143 150 160 176 181 187 191 183 180 185 190 194 195 193 196 195 196 199 204 199 196 199 202 201 202 212 208 209 211 209 218 226 225 225 233 249 250 241 247 254 253 252
116 122 130 143 148 154 164 157 161 168 174 182 187 187 184 187 188 198 206 207 201 201 203 199 196 202 217 213 212 205 206 223 237 241 239 235 244 253 250 245 255 266 269
91 94 90 86 91 99 115 118 126 131 143 157 160 159 166 178 191 202 205 205 206 208 203 198 195 201 215 216 212 202 201 224 245 255 253 249 254 264 263 242 246 261 268
85 85 84 82 79 85 95 96 93 99 115 114 113 119 146 178 188 188 186 183 187 188 191 195 199 198 207 208 204 200 200 217 236 248 254 256 262 270 269 253 243 251 260
82 83 85 79 68 75 92 91 89 93 92 90 90 92 92 118 148 147 171 172 166 163 173 172 179 210 213 195 200 206 213 216 225 245 252 257 267 273 273 265 257 262 267
84 83 85 79 69 68 86 92 85 82 84 83 78 77 79 82 104 125 126 111 120 137 147 148 170 209 215 196 197 210 223 226 229 245 250 259 267 276 274 268 271 274 264
86 85 85 81 70 63 67 72 70 78 84 80 70 67 83 84 83 99 115 127 140 148 161 168 184 206 243 245 228 243 250 249 252 266 275 280 281 278 272 277 279 265 255
82 84 86 84 75 68 65 62 65 73 77 74 70 66 66 84 88 99 137 160 193 185 180 192 192 195 232 242 217 209 228 228 242 266 288 293 299 299 295 291 285 280 278
86 83 80 79 74 70 64 57 65 76 76 64 52 57 58 64 82 89 33 341 258 224 207 201 192 208 221 228 229 236 248 252 231 201 259 274 278 278 282 284 286 281 276
Height
1494 1495 1496 1498 1501 1503 1506 1509 1513 1517 1521 1525 1528 1532 1535 1538 1541 1543 1545 1546 1548 1549 1551 1552 1554 1555 1556 1557 1557 1558 1559 1559 1560 1561 1561 1562 1563 1564 1565 1565 1566 1566 1567
1493 1494 1495 1497 1498 1501 1504 1508 1510 1515 1519 1523 1527 1531 1534 1537 1540 1542 1544 1545 1547 1548 1550 1552 1553 1554 1555 1556 1556 1557 1558 1558 1559 1560 1560 1561 1563 1563 1564 1564 1565 1565 1566
1490 1491 1493 1495 1497 1500 1503 1506 1508 1513 1517 1521 1525 1529 1532 1535 1538 1540 1542 1544 1546 1547 1549 1551 1552 1553 1554 1555 1556 1556 1557 1558 1559 1559 1560 1560 1561 1562 1563 1563 1564 1564 1564
1489 1491 1492 1493 1496 1498 1501 1505 1508 1511 1515 1519 1522 1525 1528 1532 1535 1538 1541 1543 1545 1546 1548 1550 1551 1552 1553 1554 1555 1556 1557 1557 1558 1559 1559 1560 1560 1561 1562 1563 1563 1563 1563
1488 1489 1491 1492 1494 1497 1500 1503 1506 1510 1514 1517 1520 1524 1527 1531 1534 1537 1539 1541 1544 1546 1547 1549 1550 1551 1552 1553 1554 1555 1556 1557 1557 1558 1559 1559 1560 1560 1561 1561 1562 1562 1562
1485 1488 1489 1491 1493 1496 1499 1501 1504 1507 1512 1516 1519 1522 1525 1529 1532 1535 1537 1540 1542 1544 1546 1548 1549 1550 1551 1552 1553 1554 1555 1556 1557 1557 1558 1558 1559 1559 1560 1560 1560 1560 1561
1483 1485 1487 1489 1491 1494 1497 1500 1503 1506 1510 1514 1517 1520 1524 1527 1530 1533 1535 1538 1540 1542 1544 1546 1547 1549 1550 1551 1552 1553 1553 1554 1556 1557 1557 1558 1558 1558 1559 1559 1559 1559 1559
1481 1482 1484 1487 1490 1492 1495 1498 1501 1505 1508 1512 1515 1519 1522 1525 1528 1531 1534 1536 1539 1541 1543 1544 1546 1547 1548 1549 1550 1551 1552 1553 1554 1555 1556 1557 1557 1557 1558 1558 1558 1558 1558
1478 1481 1483 1486 1488 1491 1493 1496 1500 1503 1507 1510 1513 1517 1520 1523 1526 1529 1532 1535 1537 1539 1541 1543 1544 1546 1547 1548 1549 1550 1551 1552 1553 1554 1555 1555 1556 1556 1556 1556 1557 1557 1556
1476 1479 1482 1484 1487 1489 1492 1495 1499 1502 1505 1508 1512 1515 1518 1522 1524 1527 1530 1532 1535 1537 1539 1540 1542 1544 1545 1546 1547 1548 1550 1550 1551 1552 1553 1553 1554 1554 1555 1555 1555 1555 1555
1473 1476 1479 1482 1485 1488 1491 1494 1497 1500 1503 1506 1510 1513 1517 1520 1523 1525 1528 1530 1532 1534 1536 1538 1540 1541 1543 1544 1545 1546 1548 1549 1549 1550 1551 1551 1552 1552 1552 1553 1553 1553 1552
1470 1474 1477 1480 1484 1487 1489 1492 1495 1498 1501 1504 1508 1511 1514 1517 1520 1523 1525 1528 1530 1531 1533 1535 1537 1539 1540 1542 1543 1544 1545 1546 1547 1548 1548 1549 1549 1550 1550 1550 1550 1550 1550
1469 1472 1475 1478 1481 1484 1487 1490 1493 1496 1499 1502 1505 1509 1512 1514 1517 1519 1522 1524 1526 1528 1530 1532 1534 1535 1537 1539 1540 1541 1542 1543 1544 1545 1546 1546 1547 1547 1547 1547 1547 1547 1547
1466 1469 1472 1475 1478 1481 1484 1487 1490 1494 1497 1500 1503 1506 1508 1511 1514 1516 1518 1521 1523 1525 1527 1528 1530 1532 1534 1535 1536 1538 1539 1540 1541 1542 1542 1543 1543 1543 1543 1544 1543 1543 1543
1464 1467 1469 1473 1476 1479 1482 1485 1488 1491 1494 1497 1499 1501 1505 1508 1510 1513 1515 1518 1520 1521 1523 1525 1526 1528 1530 1531 1533 1534 1535 1536 1537 1538 1538 1539 1539 1539 1540 1539 1539 1539 1538
1461 1464 1467 1469 1473 1476 1479 1482 1485 1488 1491 1493 1495 1498 1502 1504 1507 1509 1512 1514 1516 1517 1519 1520 1522 1523 1525 1527 1529 1531 1532 1532 1533 1534 1534 1535 1535 1535 1535 1535 1535 1534 1534
1459 1462 1465 1467 1470 1472 1475 1478 1481 1484 1487 1489 1492 1495 1498 1500 1503 1506 1508 1509 1511 1513 1514 1516 1517 1519 1520 1522 1524 1526 1527 1528 1529 1529 1530 1530 1530 1530 1530 1529 1529 1528 1528
1458 1460 1463 1464 1467 1470 1473 1476 1479 1482 1484 1486 1489 1492 1495 1497 1500 1502 1504 1506 1507 1509 1510 1511 1513 1514 1516 1518 1519 1520 1521 1522 1523 1524 1524 1524 1524 1524 1524 1523 1522 1522 1521
1458 1460 1462 1464 1465 1468 1470 1473 1476 1479 1481 1483 1485 1488 1491 1494 1496 1497 1499 1501 1502 1504 1505 1507 1508 1510 1511 1513 1513 1515 1515 1516 1517 1518 1518 1519 1518 1518 1518 1517 1515 1514 1514
1458 1460 1462 1464 1465 1467 1469 1471 1473 1475 1477 1479 1482 1484 1487 1489 1490 1492 1494 1496 1498 1499 1501 1502 1503 1505 1506 1507 1508 1509 1510 1510 1511 1512 1512 1512 1512 1512 1511 1510 1508 1507 1506
1460 1461 1463 1464 1466 1467 1469 1470 1471 1473 1476 1478 1480 1481 1483 1484 1486 1488 1490 1492 1494 1495 1496 1497 1499 1500 1501 1502 1503 1503 1504 1504 1505 1505 1505 1506 1505 1505 1504 1503 1501 1500 1498
1462 1463 1464 1465 1466 1467 1468 1469 1471 1473 1475 1477 1478 1479 1480 1481 1483 1484 1486 1487 1489 1490 1491 1493 1494 1495 1496 1497 1497 1498 1498 1499 1499 1499 1499 1499 1498 1498 1497 1495 1494 1493 1491
1465 1466 1466 1467 1468 1469 1470 1470 1473 1475 1475 1476 1477 1478 1479 1479 1480 1481 1482 1483 1485 1485 1487 1488 1489 1490 1491 1491 1492 1493 1493 1493 1493 1493 1493 1492 1492 1491 1489 1488 1486 1485 1483
1467 1468 1469 1469 1470 1472 1473 1473 1475 1476 1476 1477 1478 1479 1479 1479 1479 1479 1480 1481 1482 1483 1484 1485 1486 1486 1487 1487 1487 1487 1488 1488 1488 1488 1487 1487 1486 1484 1483 1481 1479 1477 1475
1470 1472 1472 1473 1474 1475 1476 1477 1478 1478 1478 1478 1479 1479 1479 1479 1479 1479 1480 1480 1481 1481 1482 1483 1483 1483 1484 1483 1483 1484 1484 1483 1483 1482 1481 1480 1479 1477 1475 1473 1472 1470 1468
1474 1475 1476 1476 1477 1478 1479 1479 1480 1480 1480 1480 1480 1480 1480 1479 1479 1479 1480 1480 1480 1480 1480 1480 1480 1480 1480 1480 1480 1480 1479 1479 1478 1477 1475 1473 1472 1470 1468 1467 1465 1463 1461